Regional Weather Roundup
Issued by NWS Albany, NY

Home | Current Version | Previous Version | Text Only | Print | Product List | Glossary On
Versions: 1 2 3 4 5 6 7 8 9 10 11 12 13 14 15 16 17 18 19 20 21 22 23 24 25 26 27
000
ASUS41 KALY 180910
RWRALY

NEW YORK STATE HOURLY WEATHER ROUNDUP
NATIONAL WEATHER SERVICE ALBANY NY
400 AM EST WED JAN 18 2017

NOTE: "FAIR" INDICATES FEW OR NO CLOUDS BELOW 12,000 FEET WITH NO
SIGNIFICANT WEATHER AND/OR NO OBSTRUCTIONS TO VISIBILITY.

NYZ032-033-038>043-046>054-057>066-NYZ062>081-082-084-181000-
EAST


CITY           SKY/WX    TMP DP  RH WIND       PRES   REMARKS
ALBANY         LGTSLEET  33  31  92 NE3       29.93F FOG
GLENS FALLS    FRZ RAIN  33  30  88 CALM      29.94S FOG
POUGHKEEPSIE   CLOUDY    33  32  96 N8        29.92F FOG     WCI  26
NEWBURGH       CLOUDY    34  34 100 CALM      29.92F FOG
MONTGOMERY     CLOUDY    35  32  88 NE6       29.90F FOG     WCI  30
WHITE PLAINS   LGT RAIN  38  37  97 NE6       29.88F FOG     WCI  33
ISLIP          LGT RAIN  42  42 100 NE10      29.86F
NEW YORK CITY  HVY RAIN  41  39  93 NE12      29.91R FOG
CENTRAL PARK   CLOUDY    39  38  96 NE5       29.93F FOG
$$

NYZ005>009-017-018-044>046-055-056-181000-
CENTRAL


CITY           SKY/WX    TMP DP  RH WIND       PRES   REMARKS
FULTON         CLOUDY    36  35  96 SE5       29.82S FOG     WCI  32
SYRACUSE       LGT RAIN  35  35 100 NE5       29.83R FOG     WCI  31
ROME           LGT RAIN  34  34 100 E9        29.87S FOG     WCI  27
ELMIRA         FOG       37  34  89 CALM      29.84S VSB 1/2
BINGHAMTON     FOG       33  33 100 S6        29.82F VSB 1/4 WCI  28
MONTICELLO     CLOUDY    30  28  93 CALM      29.88F
$$

NYZ026>034-041>043-087-181000-
NORTH


CITY           SKY/WX    TMP DP  RH WIND       PRES   REMARKS
WATERTOWN      CLOUDY    37  37 100 CALM      29.80S FOG
FORT DRUM      NOT AVBL
OGDENSBURG     LGT SNOW  32  32 100 NE3       29.84R
MASSENA        LGT SNOW  29  27  92 NE7       29.87F FOG     WCI  22
SARANAC LAKE   LGT SNOW  32  30  92 MISG      29.79F FOG
PLATTSBURGH    LGT RAIN  35  32  88 S10       29.92S WCI  27
$$

NYZ001>004-010>016-019>021-085-181000-
WEST


CITY           SKY/WX    TMP DP  RH WIND       PRES   REMARKS
NIAGARA FALLS  CLOUDY    38  35  89 SW9       29.85S FOG     WCI  31
BUFFALO        DRIZZLE   36  35  96 SW14      29.86R FOG     WCI  27
DUNKIRK        MIX PCPN  37  37 100 SW14G23   29.90R FOG     WCI  28
JAMESTOWN      CLOUDY    36  34  93 W15G23    29.87R WCI  26
WELLSVILLE     CLOUDY    41  38  89 W10       29.83S
ROCHESTER      CLOUDY    40  38  93 W9        29.84R WCI  34
PENN YAN       CLOUDY    40  37  89 S8        29.82S WCI  34
$$

             KEY
       WCI = WIND CHILL INDEX
       VSB = VISIBILITY
       HX  = HEAT INDEX
$$




USA.gov is the U.S. government's official web portal to all federal, state and local government web resources and services.